Orbital Elements at Epoch 2459200.5 (2020-Dec-17.0) TDB
Reference: JPL 26 (heliocentric ecliptic J2000)
Element | Value | Uncertainty (1-sigma) | Units |
e | .1531446130938141 | 3.4115e-08 | |
a | 2.299023488478186 | 7.0222e-09 | au |
q | 1.946940425841603 | 7.8798e-08 | au |
i | 3.574453101081633 | 3.7086e-06 | deg |
node | 34.42962140170716 | 4.4726e-05 | deg |
peri | 1.060963855385617 | 4.5722e-05 | deg |
M | 269.575944537518 | 1.0732e-05 | deg |
tp | 2459520.312194612069 (2021-Nov-01.81219461) | 3.8818e-05 | TDB |
period | 1273.2495735951 3.49 | 5.8336e-06 1.597e-08 | d yr |
n | .2827411117708192 | 1.2954e-09 | deg/d |
Q | 2.651106551114768 | 8.0977e-09 | au |
|
| | Orbit Determination Parameters
Additional Information
|